Find Starlink 34994

NORAD ID: 65924 Int'l Des: 2025-225 Owner: SPXS Country: US Constellation: starlink operational
LEOCIRCULAR

現在のビュー

3D地球を読み込み中...

About Starlink 34994

Starlink 34994 (NORAD 65924) is a starlink constellation satellite (v2 mini) launched Oct 8, 2025 by SPXS of US. It operates in LEO, CIRCULAR orbit with a mass of 575.00 kg.

次回通過

Passes for default location (London). Set your location on the main map for personalized predictions.

高度履歴

Loading altitude history...

軌道要素

1 65924U 25225Q 26265.46369663 .00019232 00000-0 57880-3 0 9994
2 65924 53.1594 328.2428 0001116 88.2603 271.8527 15.34403643 54587
Epoch: Sep 22, 2026 • Age: 19 hours

現在のステータス

高度 465.1 km
遠地点 / 近地点 N/A
速度 7.64 km/s
衛星直下点 37.68°N, 93.97°W
打ち上げ日 Oct 8, 2025
運用期間 0.9 years
タイプ internet

技術仕様

分類 Payload
質量 575.00 kg
乾燥質量 530.00 kg
長さ 0.30 m
スパン 29.00 m
形状 ? Box + pan
製造者 SPXS
バスタイプ Starlink V2MO
フェーズステータス In Orbit
所有者/国 SPXS/US

Most Searched